Weather History for Vernal, UT

Change the Weather History Date:

Sunday, February 17, 2013

  Actual Average Record
Temperature  
Mean Temperature 18 °F 27 °F  
Max Temperature 31 °F 37 °F 58 °F (1972)
Min Temperature 4 °F 17 °F -12 °F (1937)
Degree Days  
Heating Degree Days 47 38  
Month to date heating degree days 828 705  
Since 1 July heating degree days 5387 5100  
Cooling Degree Days 0 0  
Month to date cooling degree days 0 0  
Year to date cooling degree days 0 0  
Moisture  
Dew Point 9 °F    
Average Humidity 62    
Maximum Humidity 88    
Minimum Humidity 35    
Precipitation  
Precipitation 0.00 in 0.02 in 0.40 in (1945)
Month to date precipitation 0.13 0.30  
Year to date precipitation 1.00 0.80  
Sea Level Pressure  
Sea Level Pressure 30.07 in    
Wind  
Wind Speed 3 mph (NE)    
Max Wind Speed 21 mph    
Max Gust Speed 29 mph    
Visibility 6 miles    
Events      
T = Trace of Precipitation, MM = Missing Value Source: NWS Daily Summary

Daily Weather History Graph

Daily Weather History Graph

Search for Another Location

Airport:

Trip Planner

Search our weather history database for the weather conditions in past years. The results will help you decide how hot, cold, wet, or windy it might be!

Date:

Astronomy

Feb. 17, 2013 Rise Set
Actual Time 7:08 AM MST 5:56 PM MST
Civil Twilight 6:40 AM MST 6:23 PM MST
Nautical Twilight 6:08 AM MST 6:55 PM MST
Astronomical Twilight 5:37 AM MST 7:27 PM MST
Moon 11:02 AM MST (2/17) 12:56 AM MST (2/17)
Length of Visible Light 11h 43m
Length of Day
10h 47m
Waxing Crescent, 49% of the Moon is Illuminated
Feb 17
Waxing Crescent
Feb 17
First Quarter
Feb 25
Full
Mar 4
Last Quarter
Mar 11
New

Hourly Weather History & Observations

Time (MST) Temp. Windchill Dew Point Humidity Pressure Visibility Wind Dir Wind Speed Gust Speed Precip Events Conditions
12:53 AM 12.9 °F - 8.1 °F 81% 30.25 in 5.0 mi Calm Calm - N/A   Haze
1:53 AM 12.0 °F - 7.0 °F 80% 30.22 in 5.0 mi Calm Calm - N/A   Haze
2:53 AM 7.0 °F - 3.9 °F 87% 30.22 in 4.0 mi Calm Calm - N/A   Clear
3:53 AM 8.1 °F - 5.0 °F 87% 30.18 in 5.0 mi Calm Calm - N/A   Clear
4:53 AM 8.1 °F - 3.9 °F 83% 30.17 in 5.0 mi Calm Calm - N/A   Clear
5:53 AM 9.0 °F - 5.0 °F 84% 30.15 in 6.0 mi Calm Calm - N/A   Clear
6:53 AM 7.0 °F - 3.9 °F 87% 30.13 in 6.0 mi Calm Calm - N/A   Clear
7:53 AM 8.1 °F 1.4 °F 5.0 °F 87% 30.12 in 5.0 mi North 3.5 mph - N/A   Clear
8:53 AM 10.0 °F - 7.0 °F 87% 30.11 in 5.0 mi Calm Calm - N/A   Clear
9:53 AM 12.9 °F - 8.1 °F 81% 30.08 in 4.0 mi Calm Calm - N/A   Haze
10:53 AM 14.0 °F 8.2 °F 9.0 °F 80% 30.06 in 4.0 mi East 3.5 mph - N/A   Haze
11:53 AM 18.0 °F - 12.0 °F 78% 30.01 in 4.0 mi Calm Calm - N/A   Haze
12:53 PM 21.9 °F - 14.0 °F 72% 29.95 in 6.0 mi Calm Calm - N/A   Haze
1:53 PM 21.9 °F 14.5 °F 15.1 °F 75% 29.93 in 7.0 mi East 5.8 mph - N/A   Clear
2:53 PM 23.0 °F 18.4 °F 15.1 °F 72% 29.94 in 6.0 mi East 3.5 mph - N/A   Haze
3:53 PM 25.0 °F 19.3 °F 15.1 °F 66% 29.92 in 6.0 mi East 4.6 mph - N/A   Haze
4:53 PM 25.0 °F 19.3 °F 16.0 °F 69% 29.93 in 5.0 mi ESE 4.6 mph - N/A   Haze
5:53 PM 23.0 °F - 15.1 °F 72% 29.99 in 6.0 mi Calm Calm - N/A   Haze
6:53 PM 21.9 °F 17.2 °F 14.0 °F 72% 30.00 in 8.0 mi Variable 3.5 mph - N/A   Partly Cloudy
7:53 PM 27.0 °F - 15.1 °F 61% 30.01 in 10.0 mi Calm Calm - N/A   Overcast
8:53 PM 28.0 °F 20.0 °F 8.1 °F 43% 30.02 in 10.0 mi North 8.1 mph - N/A   Clear
10:53 PM 28.0 °F 18.6 °F 5.0 °F 38% 30.08 in 10.0 mi NW 10.4 mph 18.4 mph N/A   Clear
11:53 PM 27.0 °F 15.6 °F 7.0 °F 43% 30.07 in 10.0 mi NNW 13.8 mph - N/A   Clear